#timestamp,LO_Frequency,Hit,StdDev 
1516575615.5,286047017.1,N
1516575635.4,286047017.0,N
1516575655.2,286047015.9,N
1516575675.0,286046951.7,N
1516575675.9,286046951.7,N
1516575695.8,286046971.0,N
1516575715.6,286047016.3,N
1516575735.4,286047018.7,N
1516575755.2,286047018.3,N
1516575775.1,286046445.7,Y
1516575776.0,286046445.7,P
1516575795.8,286047015.4,N
1516575815.7,286047014.3,N
1516575835.5,286047015.7,N
1516575855.3,286047068.2,N
1516575875.1,286047064.2,N
1516575895.9,286047015.9,N
1516575915.7,286047098.1,N
1516575935.5,286047064.1,N
1516575955.4,286047096.0,N
1516575975.2,286047094.1,N
1516575995.0,286047096.9,N
1516575995.9,286047096.9,N
1516576015.8,286047097.1,N
1516576035.6,286047096.8,N
1516576055.4,286047094.6,N
1516576075.3,286047094.9,N
1516576095.1,286047061.8,N
1516576096.0,286047061.8,N
1516576115.8,286047065.3,N
1516576135.7,286047065.5,N
1516576155.5,286047068.0,N
1516576175.3,286047065.7,N
1516576195.1,286047068.2,N
1516576215.9,286047059.0,N
1516576235.7,286047059.9,N
1516576255.5,286047056.6,N
1516576275.4,286047060.4,N
1516576295.2,286047067.9,N
1516576315.0,286047068.2,N
1516576315.9,286047068.2,N
1516576335.8,286047057.6,N
1516576355.6,286047089.7,Y
1516576375.4,286047021.8,P
1516576395.3,286047021.5,N
1516576415.1,286047019.0,N
1516576416.0,286047019.0,N
1516576435.8,286047019.4,N
1516576455.7,286047019.9,N
1516576475.5,286047019.9,N
1516576495.3,286047017.8,N
1516576515.2,286047017.3,N
1516576535.9,286047018.6,N
1516576555.7,286046998.6,N
1516576575.5,286046983.0,N
1516576595.4,286047016.3,N
1516576615.2,286047017.0,N
1516576635.0,286047017.2,N
1516576635.9,286047017.2,N
1516576655.8,286047017.1,N
1516576675.6,286047014.3,N
1516576695.4,286047014.3,N
1516576715.3,286047015.0,N
1516576735.1,286047015.5,N
1516576736.0,286047015.5,N
1516576755.8,286047012.7,N
1516576775.7,286047011.2,N
1516576795.5,286047011.1,N
1516576815.3,286046978.7,N
1516576835.2,286046975.1,N
1516576855.9,286046974.1,N
1516576875.7,286047011.4,N
1516576895.5,286047009.6,N
1516576915.4,286047010.5,N
1516576935.2,286047008.3,N
1516576955.0,286046971.0,N
1516576955.9,286046971.0,N
1516576975.8,286046969.7,N
1516576995.6,286046968.0,N
1516577015.4,286047047.6,N
1516577035.3,286047006.9,N
1516577055.1,286047045.8,N
1516577075.8,286046966.5,N
1516577095.7,286046951.8,N
1516577115.5,286046958.0,N
1516577135.3,286046957.9,N
1516577155.2,286046955.4,N
1516577175.9,286046957.6,N
1516577195.7,286046958.4,N
1516577215.6,286046957.1,N
1516577235.4,286046957.5,N
1516577255.2,286046957.1,N
1516577275.0,286046956.5,N
1516577276.0,286046956.5,N
1516577295.8,286046959.3,N
1516577315.6,286046956.8,N
1516577335.4,286046955.7,N
1516577355.3,286046957.2,N
1516577375.1,286046959.4,N
1516577395.8,286046959.4,N
1516577415.7,286046956.5,N
1516577435.5,286046956.5,N
1516577455.3,286046956.6,N
1516577475.2,286046956.5,N
1516577495.9,286046959.6,N
1516577515.7,286046956.5,N
1516577535.6,286046956.6,N
1516577555.4,286046947.6,N
1516577575.2,286046942.1,N
1516577595.1,286046943.9,N
1516577596.0,286046943.9,N
1516577615.8,286046952.8,N
1516577635.6,286046989.8,N
1516577655.5,286046942.4,Y
1516577675.3,286047031.0,P
1516577695.1,286047031.2,N
1516577715.9,286046996.2,N
1516577735.7,286046994.4,N
1516577755.5,286046987.6,N
1516577775.3,286046992.2,N
1516577795.2,286046987.7,N
1516577815.0,286046991.4,N
1516577815.9,286046991.4,N
1516577835.7,286046989.2,N
1516577855.6,286046987.1,N
1516577875.4,286046985.3,N
1516577895.2,286046988.2,N
1516577915.1,286046987.2,N
1516577916.0,286046987.2,N
1516577935.8,286046984.9,N
1516577955.6,286046984.6,N
1516577975.5,286046986.3,N
1516577995.3,286046988.2,N
1516578015.1,286046981.6,N
1516578035.9,286046974.3,N
1516578055.7,286046981.3,N
1516578075.5,286046972.5,N
1516578095.3,286046972.5,N
1516578115.2,286046973.9,N
1516578135.0,286046973.1,N
1516578135.9,286046973.1,N
1516578155.7,286046973.6,N
1516578175.6,286046967.8,N
1516578195.4,286046973.9,N
1516578215.2,286046973.9,N
1516578235.1,286046964.6,Y
1516578236.0,286046964.6,P
1516578255.8,286046987.2,N
1516578275.6,286046975.8,N
1516578295.5,286047004.2,N
1516578315.3,286046976.5,N
1516578335.1,286047005.1,N
1516578355.9,286047023.3,N
1516578375.7,286046994.1,N
1516578395.5,286046986.0,N
1516578415.3,286046994.1,N
1516578435.2,286046992.9,N
1516578455.0,286046955.2,Y
1516578455.9,286046955.2,P
1516578475.8,286046996.2,N
1516578495.6,286046971.7,N
1516578515.4,286046969.9,N
1516578535.2,286046969.3,N
1516578555.1,286046995.6,N
1516578556.0,286046995.6,N
1516578575.8,286046994.9,N
1516578595.6,286046964.8,N
1516578615.5,286046963.6,N
1516578635.3,286046963.5,N
1516578655.1,286046960.6,N
1516578675.9,286046963.5,N
1516578695.7,286046963.2,N
1516578715.5,286046963.5,N
1516578735.4,286046963.1,N
1516578755.2,286046963.4,N
1516578775.0,286046950.1,Y
1516578775.9,286046950.1,P
1516578795.8,286047044.4,P
1516578815.6,286047042.6,N
1516578835.4,286047039.7,N
1516578855.3,286046971.3,N
1516578875.1,286046972.0,N
1516578876.0,286046972.0,N
1516578895.8,286047038.4,N
1516578915.6,286047039.3,N
1516578935.5,286047036.5,N
1516578955.3,286047037.8,N
1516578975.1,286047021.5,N
1516578995.9,286047036.3,N
1516579015.7,286047074.9,N
1516579035.5,286047034.4,N
1516579055.4,286047031.8,N
1516579075.2,286046996.3,N
1516579095.0,286047030.8,N
1516579095.9,286047030.8,N
1516579115.8,286047025.9,N
1516579135.6,286047025.6,N
1516579155.4,286047020.7,N
1516579175.3,286047027.0,N
1516579195.1,286047122.8,Y
1516579196.0,286047122.8,P
